Flag for Austria Past Weather in Tulln an der Donau, Lower Austria, Austria — Yesterday and Last 2 Weeks

Now
62 °F

Mild.


Feels Like: 62 °F
Forecast: 55 / 87 °F
Wind: 1 mph from Southeast

Location: Wien / Hohe Warte

Current Time: Aug 27, 2016 at 3:36:05 AM

Latest Report: Aug 27, 2016 at 3:00 AM


Visibility: N/A

Pressure: 30.15 "Hg

Humidity: 78%

Dew Point: 55 °F

Location of Tulln an der DonauLocation

Past Weather in Tulln an der Donau — Graph

°F

Tulln an der Donau Temperature Yesterday

Maximum temperature yesterday: 82 °F (at 4:00 PM)
Minimum temperature yesterday: 59 °F (at 6:00 AM)
Average temperature yesterday: 71 °F

High & Low Weather Summary for the Past Weeks

 TemperatureHumidityPressure
High85 °F (Aug 14, 4:00 PM)96% (Aug 14, 6:00 AM)30.35 "Hg (Aug 14, 6:00 AM)
Low51 °F (Aug 12, 6:00 AM)38% (Aug 26, 4:00 PM)29.78 "Hg (Aug 18, 5:00 PM)
Average68 °F69%30.11 "Hg
* Reported Aug 12 2:00 AM — Aug 27 2:00 AM, Tulln an der Donau, Weather by CustomWeather, © 2016

Note: Actual official high and low records may vary slightly from our data, if they occured in-between our weather recording intervals... More about our weather records

Advertising

Tulln an der Donau Weather History for the Previous 24 Hours

Scroll right to see more
 ConditionsComfort  
Time TempWeatherWind HumidityBarometerVisibility
2:00 AM
Sat, Aug 27
64 °FClear.2 mph73%30.14 "Hg16 mi
1:00 AM66 °FMild.2 mph67%30.14 "HgN/A
10:00 PM
Fri, Aug 26
71 °FMild.3 mph57%30.14 "HgN/A
9:00 PM72 °FClear.3 mph55%30.14 "Hg19 mi
8:00 PM75 °FClear.3 mph50%30.13 "Hg31 mi
7:00 PM77 °FSunny.3 mph45%30.11 "Hg31 mi
6:00 PM79 °FSunny.5 mph42%30.11 "Hg31 mi
5:00 PM82 °FSunny.6 mph39%30.11 "Hg31 mi
4:00 PM82 °FSunny.5 mph38%30.12 "Hg31 mi
3:00 PM81 °FSunny.5 mph42%30.13 "Hg31 mi
2:00 PM80 °FSunny.7 mph43%30.14 "Hg31 mi
1:00 PM79 °FSunny.7 mph43%30.14 "Hg31 mi
12:00 PM77 °FSunny.7 mph50%30.16 "Hg31 mi
11:00 AM75 °FSunny.6 mph54%30.16 "Hg31 mi
10:00 AM71 °FSunny.5 mph61%30.16 "Hg31 mi
9:00 AM68 °FSunny.7 mph65%30.16 "Hg31 mi
8:00 AM65 °FSunny.3 mph73%30.17 "Hg31 mi
7:00 AM61 °FSunny.2 mph83%30.17 "Hg31 mi
6:00 AM59 °FClear.2 mph85%30.17 "Hg31 mi
5:00 AM60 °FCool.2 mph87%30.17 "HgN/A
4:00 AM61 °FCool.2 mph85%30.17 "HgN/A
3:00 AM62 °FCool.1 mph82%30.17 "HgN/A
Weather by CustomWeather, © 2016

See weather overviewHow to use our weather pages